Regional Weather Roundup
Issued by NWS

Home | Current Version | Previous Version | Graphics & Text | Print | Product List | Glossary On
Versions: 1 2 3 4 5 6 7 8 9 10 11 12 13 14 15 16 17 18 19 20 21 22 23 24 25 26 27 28 29 30 31 32 33 34 35 36 37 38 39 40 41 42 43 44 45 46 47 48 49 50
155
ASUS45 KSLC 031810
RWRUT

UTAH REGIONAL WEATHER ROUNDUP
NATIONAL WEATHER SERVICE SALT LAKE CITY UT
1200 PM MDT TUE MAY 03 2016

UTZ001>011-023>025-031900-

NORTHERN UTAH

CITY           SKY/WX    TMP DP  RH WIND       PRES   REMARKS
BRIGHAM CITY   SUNNY     62  35  37 CALM      30.25F
DUGWAY         MOSUNNY   69  36  29 N6        30.25
HILL AFB       SUNNY     62  35  35 VRB2      30.25F
LOGAN          SUNNY     60  37  42 CALM      30.25F
OGDEN          SUNNY     64  36  35 VRB3      30.24F
PROVO AIRPORT  SUNNY     61  37  41 CALM      30.26S
SALT LAKE CITY MOSUNNY   67  34  29 NW7       30.24S
VERNAL         SUNNY     61  28  28 E5        30.27F
WENDOVER       SUNNY     63  36  36 SE6       30.26S
HEBER CITY     SUNNY     61  32  33 CALM      30.26F

$$

UTZ012>022-026-027-031900-

SOUTHERN/CENTRAL UTAH

CITY           SKY/WX    TMP DP  RH WIND       PRES   REMARKS
BLANDING       SUNNY     63  26  24 NE15      30.31S
BRYCE CANYON   MOSUNNY   53  31  42 VRB5      30.32S
CEDAR CITY     SUNNY     61  37  41 N5        30.24S
DELTA          SUNNY     63  32  31 N3        30.24S
HANKSVILLE     SUNNY     64  34  32 CALM      30.25S
MILFORD        SUNNY     66  35  31 N8        30.23S
MOAB/CYNLANDS  SUNNY     69  24  18 E9        30.20F
PRICE          SUNNY     64  23  21 S12       30.26S
ST GEORGE      CLEAR     66  37  34 NW3       30.17F
KANAB          SUNNY     68  34  28 E10G23    30.26R

$$

REGIONAL REPORTS     COLORADO/ARIZONA

CITY           SKY/WX    TMP DP  RH WIND       PRES   REMARKS
CRAIG, CO      SUNNY     58  25  28 CALM      30.29F
GRAND JUNCTION SUNNY     63  31  30 VRB7      30.22F
RIFLE          SUNNY     62  21  20 CALM      30.24F
MONTROSE       SUNNY     60  29  30 CALM      30.26F
CORTEZ         SUNNY     62  37  39 S14       30.22S
PAGE, AZ       SUNNY     65  37  35 N7        30.22S
GRAND CANYON   SUNNY     59  33  37 NE15G23   30.28R
KINGMAN        SUNNY     75  35  23 E8        30.09F
FLAGSTAFF      MOSUNNY   55  36  48 E17G23    30.27R

$$

REGIONAL REPORTS    NEVADA/IDAHO/WYOMING

CITY           SKY/WX    TMP DP  RH WIND       PRES   REMARKS
LAS VEGAS, NV  SUNNY     77  36  22 NE12      30.06F
ELY            SUNNY     59  31  34 VRB3      30.27F
ELKO           SUNNY     64  38  38 E6        30.23F
POCATELLO, ID  SUNNY     67  37  33 NE6       30.25F
BURLEY         SUNNY     66  31  27 SE3       30.21F
EVANSTON, WY   SUNNY     58  23  26 NW6       30.32F
ROCK SPRINGS   SUNNY     56  20  24 VRB6      30.31F
KEMMERER         N/A     59  19  21 CALM      30.33S

$$




USA.gov is the U.S. government's official web portal to all federal, state and local government web resources and services.